FLI459 EKCH-EKVG

Flight info

Callsign FLI459
Flight time 2h 2m
Altitude 38000
Route GOLGA DCT AMSEV DCT ZOL DCT GUNPA DCT ROBUR
Aircraft A320/M-SDE3FGHIRWY/LB1

Departure

Time 2026-04-26 19:05
Airport Copenhagen Kastrup Airport (EKCH)

Arrival

Time 2026-04-26 21:08
Airport Vágar Airport (EKVG)
Time Latitude Longitude Altitude Speed Heading
2026-04-26 18:00 55.62885 12.64001 22 ft 0 kts 13°
2026-04-26 18:50 55.62880 12.63999 22 ft 2 kts 14°
2026-04-26 18:51 55.62862 12.63988 23 ft 3 kts 29°
2026-04-26 18:51 55.62846 12.63969 25 ft 3 kts 51°
2026-04-26 18:51 55.62837 12.63939 28 ft 3 kts 77°
2026-04-26 18:51 55.62835 12.63905 27 ft 3 kts 97°
2026-04-26 18:52 55.62838 12.63871 27 ft 2 kts 105°
2026-04-26 18:52 55.62840 12.63861 26 ft 0 kts 105°
2026-04-26 18:58 55.62839 12.63866 24 ft 3 kts 105°
2026-04-26 18:58 55.62836 12.63881 24 ft 6 kts 107°
2026-04-26 18:59 55.62784 12.63955 23 ft 10 kts 181°
2026-04-26 18:59 55.62710 12.63885 24 ft 14 kts 214°
2026-04-26 18:59 55.62640 12.63887 27 ft 13 kts 131°
2026-04-26 18:59 55.62576 12.64060 23 ft 21 kts 123°
2026-04-26 19:00 55.62480 12.64313 20 ft 28 kts 126°
2026-04-26 19:00 55.62360 12.64598 20 ft 19 kts 120°
2026-04-26 19:00 55.62306 12.64757 24 ft 10 kts 125°
2026-04-26 19:00 55.62225 12.64784 23 ft 16 kts 201°
2026-04-26 19:01 55.62106 12.64656 21 ft 24 kts 213°
2026-04-26 19:01 55.62002 12.64536 19 ft 14 kts 210°
2026-04-26 19:01 55.61897 12.64505 21 ft 14 kts 169°
2026-04-26 19:01 55.61789 12.64546 20 ft 19 kts 169°
2026-04-26 19:02 55.61669 12.64556 19 ft 17 kts 204°
2026-04-26 19:02 55.61549 12.64423 18 ft 24 kts 213°
2026-04-26 19:02 55.61389 12.64240 18 ft 31 kts 213°
2026-04-26 19:02 55.61268 12.64102 16 ft 26 kts 212°
2026-04-26 19:03 55.61043 12.63839 19 ft 32 kts 213°
2026-04-26 19:03 55.60923 12.63701 21 ft 17 kts 213°
2026-04-26 19:03 55.60838 12.63609 21 ft 14 kts 201°
2026-04-26 19:03 55.60761 12.63642 24 ft 7 kts 136°
2026-04-26 19:04 55.60727 12.63710 24 ft 3 kts 129°
2026-04-26 19:04 55.60721 12.63723 26 ft 5 kts 129°
2026-04-26 19:04 55.60694 12.63806 28 ft 11 kts 105°
2026-04-26 19:04 55.60725 12.63950 28 ft 17 kts 44°
2026-04-26 19:05 55.61291 12.64824 23 ft 115 kts 41°
2026-04-26 19:05 55.62032 12.65974 32 ft 165 kts 42°
2026-04-26 19:05 55.62869 12.67273 706 ft 158 kts 40°
2026-04-26 19:06 55.63696 12.68558 1345 ft 159 kts 39°
2026-04-26 19:06 55.64541 12.69871 1915 ft 167 kts 39°
2026-04-26 19:06 55.65563 12.71062 2236 ft 186 kts 10°
2026-04-26 19:06 55.66880 12.70795 2550 ft 203 kts 338°
2026-04-26 19:07 55.68273 12.70014 2897 ft 225 kts 345°
2026-04-26 19:07 55.69905 12.69625 3322 ft 249 kts 352°
2026-04-26 19:07 55.71673 12.69453 4143 ft 256 kts 354°
2026-04-26 19:07 55.73456 12.69346 5156 ft 256 kts 354°
2026-04-26 19:08 55.75239 12.69241 6149 ft 256 kts 354°
2026-04-26 19:08 55.77021 12.69111 7080 ft 258 kts 354°
2026-04-26 19:08 55.78816 12.68953 7968 ft 259 kts 352°
2026-04-26 19:08 55.80563 12.68250 8849 ft 257 kts 335°
2026-04-26 19:09 55.82038 12.66505 9720 ft 257 kts 315°
2026-04-26 19:09 55.83282 12.64247 10533 ft 261 kts 314°
2026-04-26 19:09 55.84596 12.61825 10822 ft 283 kts 314°
2026-04-26 19:09 55.86020 12.59177 11185 ft 300 kts 314°
2026-04-26 19:10 55.87476 12.56458 11867 ft 305 kts 314°
2026-04-26 19:10 55.88929 12.53722 12627 ft 308 kts 314°
2026-04-26 19:10 55.90403 12.50927 13373 ft 311 kts 314°
2026-04-26 19:10 55.91884 12.48111 14127 ft 314 kts 314°
2026-04-26 19:11 55.93383 12.45254 14786 ft 317 kts 313°
2026-04-26 19:11 55.94896 12.42356 15463 ft 320 kts 313°
2026-04-26 19:11 55.96418 12.39438 16112 ft 323 kts 313°
2026-04-26 19:11 55.97949 12.36501 16752 ft 326 kts 313°
2026-04-26 19:12 55.99502 12.33521 17378 ft 329 kts 313°
2026-04-26 19:12 56.01072 12.30506 18004 ft 332 kts 313°
2026-04-26 19:12 56.02654 12.27464 18606 ft 336 kts 313°
2026-04-26 19:12 56.04254 12.24384 19162 ft 338 kts 313°
2026-04-26 19:13 56.05853 12.21298 19722 ft 341 kts 313°
2026-04-26 19:13 56.07475 12.18163 20275 ft 343 kts 313°
2026-04-26 19:13 56.09104 12.15017 20859 ft 346 kts 313°
2026-04-26 19:13 56.10750 12.11844 21418 ft 348 kts 313°
2026-04-26 19:14 56.12398 12.08664 21973 ft 350 kts 313°
2026-04-26 19:14 56.14065 12.05433 22531 ft 353 kts 313°
2026-04-26 19:14 56.15732 12.02193 23046 ft 356 kts 313°
2026-04-26 19:14 56.16849 12.00016 23373 ft 358 kts 312°
2026-04-26 19:15 56.19116 11.95585 24024 ft 361 kts 312°
2026-04-26 19:15 56.20825 11.92250 24442 ft 364 kts 312°
2026-04-26 19:15 56.22525 11.88939 24851 ft 366 kts 312°
2026-04-26 19:15 56.24255 11.85567 25254 ft 368 kts 312°
2026-04-26 19:16 56.25988 11.82174 25651 ft 370 kts 312°
2026-04-26 19:16 56.27728 11.78757 26040 ft 372 kts 312°
2026-04-26 19:16 56.29488 11.75297 26448 ft 374 kts 312°
2026-04-26 19:16 56.31243 11.71838 26836 ft 376 kts 312°
2026-04-26 19:17 56.33006 11.68358 27191 ft 378 kts 312°
2026-04-26 19:17 56.34786 11.64840 27568 ft 380 kts 312°
2026-04-26 19:17 56.36570 11.61312 27904 ft 382 kts 312°
2026-04-26 19:17 56.38365 11.57757 28255 ft 384 kts 312°
2026-04-26 19:18 56.40173 11.54174 28578 ft 386 kts 311°
2026-04-26 19:18 56.41987 11.50575 28907 ft 388 kts 311°
2026-04-26 19:18 56.43809 11.46956 29229 ft 390 kts 311°
2026-04-26 19:18 56.45642 11.43304 29546 ft 392 kts 311°
2026-04-26 19:19 56.47481 11.39636 29855 ft 394 kts 311°
2026-04-26 19:19 56.49309 11.35986 30149 ft 396 kts 311°
2026-04-26 19:19 56.51162 11.32275 30425 ft 398 kts 311°
2026-04-26 19:19 56.53013 11.28558 30658 ft 400 kts 311°
2026-04-26 19:20 56.54880 11.24797 30892 ft 401 kts 311°
2026-04-26 19:20 56.56140 11.22256 31045 ft 402 kts 311°
2026-04-26 19:20 56.58631 11.17239 31330 ft 405 kts 311°
2026-04-26 19:20 56.60514 11.13445 31550 ft 406 kts 311°
2026-04-26 19:21 56.62403 11.09634 31877 ft 405 kts 311°
2026-04-26 19:21 56.64290 11.05823 32169 ft 405 kts 311°
2026-04-26 19:21 56.66166 11.02029 32465 ft 404 kts 311°
2026-04-26 19:21 56.68038 10.98232 32761 ft 404 kts 311°
2026-04-26 19:22 56.69914 10.94421 33056 ft 403 kts 311°
2026-04-26 19:22 56.71780 10.90623 33348 ft 403 kts 311°
2026-04-26 19:22 56.73650 10.86809 33640 ft 403 kts 311°
2026-04-26 19:22 56.75508 10.83008 33940 ft 402 kts 311°
2026-04-26 19:23 56.77371 10.79189 34225 ft 402 kts 311°
2026-04-26 19:23 56.79222 10.75384 34478 ft 402 kts 311°
2026-04-26 19:23 56.81054 10.71613 34716 ft 402 kts 311°
2026-04-26 19:23 56.82910 10.67787 34948 ft 401 kts 311°
2026-04-26 19:24 56.84756 10.63981 35163 ft 401 kts 311°
2026-04-26 19:24 56.86612 10.60153 35400 ft 401 kts 311°
2026-04-26 19:24 56.90310 10.52509 35813 ft 401 kts 311°
2026-04-26 19:25 56.92151 10.48694 36019 ft 401 kts 311°
2026-04-26 19:25 56.92772 10.47404 36083 ft 401 kts 311°
2026-04-26 19:25 56.95834 10.41035 36423 ft 401 kts 311°
2026-04-26 19:25 56.97680 10.37192 36596 ft 401 kts 311°
2026-04-26 19:26 56.99528 10.33344 36779 ft 401 kts 311°
2026-04-26 19:26 57.01365 10.29509 36951 ft 401 kts 311°
2026-04-26 19:26 57.03206 10.25648 37130 ft 401 kts 311°
2026-04-26 19:26 57.05037 10.21801 37299 ft 401 kts 311°
2026-04-26 19:27 57.06851 10.17986 37480 ft 401 kts 311°
2026-04-26 19:27 57.08707 10.14085 37632 ft 401 kts 311°
2026-04-26 19:27 57.10521 10.10266 37790 ft 401 kts 311°
2026-04-26 19:27 57.12348 10.06410 37925 ft 401 kts 311°
2026-04-26 19:28 57.14181 10.02534 38070 ft 400 kts 311°
2026-04-26 19:28 57.16012 9.98656 38244 ft 400 kts 311°
2026-04-26 19:28 57.19654 9.90930 38287 ft 400 kts 311°
2026-04-26 19:29 57.23306 9.83151 38267 ft 400 kts 311°
2026-04-26 19:29 57.26946 9.75380 38271 ft 400 kts 310°
2026-04-26 19:30 57.30584 9.67587 38277 ft 401 kts 310°
2026-04-26 19:30 57.33629 9.61033 38280 ft 401 kts 310°
2026-04-26 19:31 57.37861 9.51898 38259 ft 402 kts 310°
2026-04-26 19:31 57.41501 9.44018 38265 ft 402 kts 310°
2026-04-26 19:32 57.45134 9.36131 38272 ft 402 kts 310°
2026-04-26 19:32 57.48764 9.28214 38266 ft 402 kts 310°
2026-04-26 19:33 57.52358 9.20329 38276 ft 402 kts 310°
2026-04-26 19:33 57.55969 9.12399 38271 ft 402 kts 310°
2026-04-26 19:34 57.59590 9.04448 38262 ft 402 kts 310°
2026-04-26 19:34 57.63188 8.96499 38271 ft 402 kts 309°
2026-04-26 19:35 57.66801 8.88483 38270 ft 403 kts 309°
2026-04-26 19:35 57.70406 8.80457 38270 ft 403 kts 309°
2026-04-26 19:36 57.72795 8.75123 38276 ft 403 kts 309°
2026-04-26 19:36 57.77008 8.65704 38262 ft 403 kts 309°
2026-04-26 19:37 57.81191 8.56320 38261 ft 403 kts 309°
2026-04-26 19:37 57.84187 8.49546 38251 ft 403 kts 309°
2026-04-26 19:38 57.87754 8.41462 38239 ft 404 kts 309°
2026-04-26 19:38 57.91357 8.33288 38253 ft 404 kts 309°
2026-04-26 19:39 57.94933 8.25144 38270 ft 404 kts 309°
2026-04-26 19:39 57.98499 8.16997 38250 ft 405 kts 309°
2026-04-26 19:40 58.02069 8.08811 38243 ft 405 kts 309°
2026-04-26 19:40 58.05639 8.00603 38240 ft 406 kts 308°
2026-04-26 19:41 58.09226 7.92330 38242 ft 405 kts 308°
2026-04-26 19:41 58.12188 7.85466 38247 ft 405 kts 308°
2026-04-26 19:42 58.16326 7.75843 38246 ft 405 kts 308°
2026-04-26 19:42 58.19886 7.67536 38254 ft 404 kts 308°
2026-04-26 19:43 58.23416 7.59271 38265 ft 404 kts 308°
2026-04-26 19:43 58.26951 7.50971 38265 ft 404 kts 308°
2026-04-26 19:44 58.30489 7.42626 38246 ft 404 kts 308°
2026-04-26 19:44 58.34013 7.34277 38246 ft 406 kts 308°
2026-04-26 19:45 58.37530 7.25917 38253 ft 406 kts 308°
2026-04-26 19:45 58.41077 7.17473 38266 ft 406 kts 308°
2026-04-26 19:46 58.44600 7.09050 38265 ft 407 kts 308°
2026-04-26 19:46 58.48137 7.00546 38268 ft 407 kts 307°
2026-04-26 19:47 58.51050 6.93535 38276 ft 407 kts 307°
2026-04-26 19:47 58.55139 6.83662 38269 ft 407 kts 307°
2026-04-26 19:48 58.58646 6.75138 38274 ft 407 kts 307°
2026-04-26 19:48 58.62144 6.66613 38276 ft 407 kts 307°
2026-04-26 19:49 58.65678 6.57989 38281 ft 408 kts 307°
2026-04-26 19:49 58.69155 6.49454 38291 ft 408 kts 307°
2026-04-26 19:50 58.72656 6.40840 38290 ft 408 kts 307°
2026-04-26 19:50 58.76140 6.32238 38291 ft 408 kts 307°
2026-04-26 19:51 58.79610 6.23628 38309 ft 408 kts 306°
2026-04-26 19:51 58.83072 6.14989 38310 ft 408 kts 306°
2026-04-26 19:52 58.86554 6.06297 38309 ft 408 kts 306°
2026-04-26 19:52 58.90018 5.97641 38337 ft 408 kts 306°
2026-04-26 19:53 58.93499 5.88864 38323 ft 409 kts 306°
2026-04-26 19:53 58.96946 5.80158 38321 ft 409 kts 306°
2026-04-26 19:54 59.00384 5.71441 38321 ft 409 kts 306°
2026-04-26 19:54 59.03848 5.62618 38319 ft 409 kts 306°
2026-04-26 19:55 59.07281 5.53842 38324 ft 409 kts 306°
2026-04-26 19:55 59.10703 5.45063 38329 ft 409 kts 306°
2026-04-26 19:56 59.14129 5.36259 38341 ft 409 kts 306°
2026-04-26 19:56 59.17552 5.27412 38341 ft 408 kts 306°
2026-04-26 19:57 59.20960 5.18585 38342 ft 408 kts 306°
2026-04-26 19:57 59.24394 5.09666 38345 ft 409 kts 305°
2026-04-26 19:58 59.27789 5.00792 38332 ft 410 kts 305°
2026-04-26 19:58 59.31188 4.91865 38325 ft 410 kts 305°
2026-04-26 19:59 59.34609 4.82848 38326 ft 410 kts 305°
2026-04-26 19:59 59.37991 4.73910 38327 ft 411 kts 305°
2026-04-26 20:00 59.41406 4.64844 38339 ft 411 kts 305°
2026-04-26 20:00 59.44795 4.55823 38341 ft 412 kts 305°
2026-04-26 20:01 59.48183 4.46775 38327 ft 412 kts 304°
2026-04-26 20:01 59.51589 4.37645 38335 ft 413 kts 304°
2026-04-26 20:02 59.54974 4.28538 38357 ft 413 kts 304°
2026-04-26 20:02 59.57811 4.20862 38346 ft 414 kts 304°
2026-04-26 20:03 59.61762 4.10129 38340 ft 415 kts 304°
2026-04-26 20:03 59.65138 4.00907 38351 ft 415 kts 304°
2026-04-26 20:04 59.68524 3.91636 38351 ft 416 kts 304°
2026-04-26 20:04 59.71915 3.82329 38342 ft 417 kts 304°
2026-04-26 20:05 59.75299 3.72987 38349 ft 417 kts 304°
2026-04-26 20:05 59.78683 3.63614 38350 ft 417 kts 304°
2026-04-26 20:06 59.82062 3.54236 38352 ft 418 kts 304°
2026-04-26 20:06 59.85414 3.44877 38372 ft 418 kts 304°
2026-04-26 20:07 59.88777 3.35433 38353 ft 419 kts 304°
2026-04-26 20:07 59.92150 3.25946 38345 ft 419 kts 303°
2026-04-26 20:08 59.95520 3.16438 38340 ft 420 kts 303°
2026-04-26 20:08 59.98890 3.06885 38342 ft 421 kts 303°
2026-04-26 20:09 60.02250 2.97306 38346 ft 421 kts 303°
2026-04-26 20:09 60.05609 2.87696 38347 ft 421 kts 303°
2026-04-26 20:10 60.08942 2.78110 38354 ft 422 kts 303°
2026-04-26 20:10 60.12294 2.68442 38353 ft 422 kts 303°
2026-04-26 20:11 60.15642 2.58758 38352 ft 423 kts 303°
2026-04-26 20:12 60.20659 2.44138 38338 ft 424 kts 303°
2026-04-26 20:12 60.24005 2.34345 38341 ft 425 kts 303°
2026-04-26 20:13 60.27318 2.24597 38341 ft 425 kts 302°
2026-04-26 20:13 60.30652 2.14748 38341 ft 425 kts 302°
2026-04-26 20:14 60.33980 2.04880 38344 ft 425 kts 302°
2026-04-26 20:14 60.37298 1.94995 38339 ft 425 kts 302°
2026-04-26 20:15 60.40624 1.85069 38329 ft 426 kts 302°
2026-04-26 20:15 60.43943 1.75129 38331 ft 427 kts 302°
2026-04-26 20:16 60.47260 1.65145 38349 ft 427 kts 302°
2026-04-26 20:16 60.50543 1.55168 38341 ft 428 kts 302°
2026-04-26 20:17 60.53856 1.45101 38345 ft 428 kts 302°
2026-04-26 20:17 60.57152 1.35035 38341 ft 428 kts 302°
2026-04-26 20:18 60.60454 1.24915 38334 ft 429 kts 302°
2026-04-26 20:18 60.63744 1.14787 38333 ft 430 kts 302°
2026-04-26 20:19 60.67031 1.04613 38323 ft 430 kts 302°
2026-04-26 20:19 60.70314 0.94410 38324 ft 430 kts 302°
2026-04-26 20:20 60.73596 0.84189 38325 ft 430 kts 301°
2026-04-26 20:20 60.76865 0.73933 38335 ft 430 kts 301°
2026-04-26 20:21 60.80093 0.63730 38329 ft 430 kts 301°
2026-04-26 20:21 60.83352 0.53425 38309 ft 431 kts 301°
2026-04-26 20:22 60.86605 0.43104 38310 ft 431 kts 301°
2026-04-26 20:22 60.89853 0.32754 38307 ft 431 kts 301°
2026-04-26 20:23 60.93093 0.22364 38294 ft 431 kts 301°
2026-04-26 20:23 60.96326 0.11932 38296 ft 431 kts 301°
2026-04-26 20:24 60.99496 0.01473 38299 ft 430 kts 296°
2026-04-26 20:24 61.01641 -0.10000 38291 ft 428 kts 287°
2026-04-26 20:25 61.03501 -0.21573 38291 ft 429 kts 287°
2026-04-26 20:25 61.05383 -0.33258 38304 ft 429 kts 287°
2026-04-26 20:26 61.07262 -0.44972 38300 ft 430 kts 287°
2026-04-26 20:26 61.09130 -0.56711 38296 ft 429 kts 287°
2026-04-26 20:27 61.10976 -0.68441 38297 ft 429 kts 287°
2026-04-26 20:27 61.12508 -0.78216 38295 ft 430 kts 287°
2026-04-26 20:28 61.14345 -0.89988 38291 ft 430 kts 287°
2026-04-26 20:28 61.16172 -1.01770 38293 ft 430 kts 286°
2026-04-26 20:29 61.17984 -1.13568 38281 ft 430 kts 286°
2026-04-26 20:29 61.19782 -1.25390 38281 ft 430 kts 286°
2026-04-26 20:30 61.21571 -1.37250 38279 ft 431 kts 286°
2026-04-26 20:30 61.23341 -1.49034 38277 ft 431 kts 285°
2026-04-26 20:31 61.25116 -1.60916 38284 ft 430 kts 285°
2026-04-26 20:31 61.26883 -1.72768 38270 ft 430 kts 286°
2026-04-26 20:32 61.28639 -1.84679 38253 ft 431 kts 285°
2026-04-26 20:32 61.30379 -1.96614 38254 ft 431 kts 285°
2026-04-26 20:33 61.32112 -2.08540 38282 ft 430 kts 285°
2026-04-26 20:33 61.33833 -2.20467 38269 ft 431 kts 284°
2026-04-26 20:34 61.35536 -2.32382 38036 ft 431 kts 284°
2026-04-26 20:34 61.36387 -2.38343 37365 ft 431 kts 285°
2026-04-26 20:34 61.37247 -2.44352 36640 ft 431 kts 284°
2026-04-26 20:34 61.38100 -2.50357 35862 ft 434 kts 284°
2026-04-26 20:35 61.38951 -2.56402 35095 ft 436 kts 283°
2026-04-26 20:35 61.39804 -2.62482 34457 ft 435 kts 283°
2026-04-26 20:35 61.40652 -2.68538 33826 ft 433 kts 284°
2026-04-26 20:35 61.41495 -2.74578 33181 ft 431 kts 284°
2026-04-26 20:36 61.42325 -2.80548 32593 ft 428 kts 284°
2026-04-26 20:36 61.43146 -2.86504 31986 ft 426 kts 284°
2026-04-26 20:36 61.43962 -2.92452 31368 ft 425 kts 283°
2026-04-26 20:36 61.44775 -2.98404 30800 ft 424 kts 284°
2026-04-26 20:37 61.45581 -3.04308 30243 ft 423 kts 284°
2026-04-26 20:37 61.46384 -3.10184 29651 ft 420 kts 283°
2026-04-26 20:37 61.47185 -3.16052 29061 ft 417 kts 284°
2026-04-26 20:37 61.47975 -3.21856 28581 ft 412 kts 284°
2026-04-26 20:38 61.48752 -3.27599 28055 ft 408 kts 283°
2026-04-26 20:38 61.49514 -3.33268 27598 ft 404 kts 284°
2026-04-26 20:38 61.50266 -3.38909 27135 ft 399 kts 283°
2026-04-26 20:38 61.51009 -3.44485 26608 ft 398 kts 283°
2026-04-26 20:39 61.51738 -3.49982 26151 ft 394 kts 283°
2026-04-26 20:39 61.52465 -3.55494 25705 ft 391 kts 282°
2026-04-26 20:39 61.53185 -3.60972 25242 ft 389 kts 282°
2026-04-26 20:39 61.53900 -3.66409 24820 ft 385 kts 282°
2026-04-26 20:40 61.54612 -3.71816 24395 ft 381 kts 283°
2026-04-26 20:40 61.55313 -3.77146 23962 ft 377 kts 282°
2026-04-26 20:40 61.56002 -3.82406 23522 ft 373 kts 282°
2026-04-26 20:40 61.56683 -3.87651 23041 ft 370 kts 283°
2026-04-26 20:41 61.57350 -3.92818 22582 ft 366 kts 283°
2026-04-26 20:41 61.58010 -3.97958 22106 ft 363 kts 281°
2026-04-26 20:41 61.58659 -4.03047 21662 ft 360 kts 283°
2026-04-26 20:41 61.59301 -4.08106 21222 ft 356 kts 282°
2026-04-26 20:42 61.59941 -4.13115 20795 ft 353 kts 281°
2026-04-26 20:42 61.60572 -4.18062 20382 ft 350 kts 281°
2026-04-26 20:42 61.61186 -4.22928 19960 ft 347 kts 281°
2026-04-26 20:42 61.61808 -4.27858 19565 ft 344 kts 283°
2026-04-26 20:43 61.62417 -4.32693 19224 ft 339 kts 282°
2026-04-26 20:43 61.63016 -4.37448 18836 ft 336 kts 283°
2026-04-26 20:43 61.63609 -4.42148 18424 ft 334 kts 283°
2026-04-26 20:43 61.64200 -4.46859 18001 ft 331 kts 282°
2026-04-26 20:44 61.64786 -4.51578 17567 ft 329 kts 283°
2026-04-26 20:44 61.65351 -4.56144 17183 ft 325 kts 282°
2026-04-26 20:44 61.65917 -4.60740 16725 ft 325 kts 283°
2026-04-26 20:44 61.66480 -4.65333 16319 ft 323 kts 282°
2026-04-26 20:45 61.67038 -4.69900 15936 ft 320 kts 282°
2026-04-26 20:45 61.67589 -4.74432 15505 ft 320 kts 282°
2026-04-26 20:45 61.68141 -4.78942 15130 ft 317 kts 283°
2026-04-26 20:45 61.68689 -4.83424 14707 ft 317 kts 283°
2026-04-26 20:46 61.69235 -4.87914 14302 ft 316 kts 283°
2026-04-26 20:46 61.69777 -4.92392 13945 ft 313 kts 283°
2026-04-26 20:46 61.70314 -4.96831 13505 ft 312 kts 283°
2026-04-26 20:46 61.70842 -5.01211 13068 ft 311 kts 283°
2026-04-26 20:47 61.71379 -5.05685 12659 ft 310 kts 283°
2026-04-26 20:47 61.71727 -5.08590 12392 ft 308 kts 282°
2026-04-26 20:47 61.72412 -5.14371 11869 ft 305 kts 282°
2026-04-26 20:47 61.72924 -5.18701 11477 ft 303 kts 282°
2026-04-26 20:48 61.73430 -5.22990 11088 ft 301 kts 282°
2026-04-26 20:48 61.73932 -5.27251 10702 ft 299 kts 282°
2026-04-26 20:48 61.74431 -5.31492 10315 ft 296 kts 282°
2026-04-26 20:48 61.74925 -5.35701 9959 ft 293 kts 282°
2026-04-26 20:49 61.75406 -5.39803 9814 ft 281 kts 282°
2026-04-26 20:49 61.75871 -5.43774 9511 ft 276 kts 282°
2026-04-26 20:49 61.76330 -5.47705 9129 ft 274 kts 282°
2026-04-26 20:49 61.76786 -5.51603 8739 ft 273 kts 282°
2026-04-26 20:50 61.77233 -5.55436 8343 ft 271 kts 282°
2026-04-26 20:50 61.77685 -5.59336 7944 ft 269 kts 282°
2026-04-26 20:50 61.78123 -5.63128 7551 ft 268 kts 282°
2026-04-26 20:50 61.78561 -5.66932 7161 ft 266 kts 282°
2026-04-26 20:51 61.78992 -5.70725 6777 ft 264 kts 282°
2026-04-26 20:51 61.79417 -5.74492 6432 ft 261 kts 282°
2026-04-26 20:51 61.79840 -5.78236 6390 ft 264 kts 282°
2026-04-26 20:51 61.80268 -5.82021 6314 ft 265 kts 282°
2026-04-26 20:52 61.80695 -5.85798 6234 ft 264 kts 282°
2026-04-26 20:52 61.81122 -5.89571 6153 ft 264 kts 282°
2026-04-26 20:52 61.81549 -5.93335 6077 ft 263 kts 282°
2026-04-26 20:52 61.81974 -5.97102 5999 ft 263 kts 282°
2026-04-26 20:53 61.82398 -6.00862 5918 ft 263 kts 282°
2026-04-26 20:53 61.82818 -6.04619 5840 ft 262 kts 282°
2026-04-26 20:53 61.83237 -6.08377 5763 ft 262 kts 282°
2026-04-26 20:53 61.83654 -6.12122 5691 ft 262 kts 282°
2026-04-26 20:54 61.84071 -6.15865 5599 ft 261 kts 282°
2026-04-26 20:54 61.84486 -6.19618 5531 ft 261 kts 282°
2026-04-26 20:54 61.84895 -6.23353 5452 ft 261 kts 282°
2026-04-26 20:54 61.85302 -6.27073 5282 ft 258 kts 282°
2026-04-26 20:55 61.85701 -6.30733 5107 ft 258 kts 282°
2026-04-26 20:55 61.86106 -6.34449 4955 ft 259 kts 282°
2026-04-26 20:55 61.86511 -6.38152 4790 ft 258 kts 282°
2026-04-26 20:55 61.86917 -6.41871 4640 ft 258 kts 282°
2026-04-26 20:56 61.87315 -6.45567 4478 ft 258 kts 281°
2026-04-26 20:56 61.87714 -6.49272 4324 ft 258 kts 281°
2026-04-26 20:56 61.88114 -6.52984 4173 ft 257 kts 281°
2026-04-26 20:56 61.88511 -6.56661 4068 ft 257 kts 282°
2026-04-26 20:57 61.89026 -6.60313 3963 ft 258 kts 287°
2026-04-26 20:57 61.89586 -6.63903 3862 ft 257 kts 287°
2026-04-26 20:57 61.90150 -6.67514 3752 ft 257 kts 287°
2026-04-26 20:57 61.90707 -6.71100 3657 ft 256 kts 287°
2026-04-26 20:58 61.91259 -6.74684 3554 ft 256 kts 286°
2026-04-26 20:58 61.91810 -6.78282 3450 ft 255 kts 286°
2026-04-26 20:58 61.92357 -6.81862 3342 ft 255 kts 286°
2026-04-26 20:58 61.92905 -6.85453 3238 ft 255 kts 286°
2026-04-26 20:59 61.93451 -6.89030 3139 ft 255 kts 286°
2026-04-26 20:59 61.93998 -6.92608 3026 ft 254 kts 286°
2026-04-26 20:59 61.94540 -6.96170 2976 ft 254 kts 286°
2026-04-26 20:59 61.95077 -6.99702 2923 ft 253 kts 286°
2026-04-26 21:00 61.95618 -7.03270 2867 ft 254 kts 286°
2026-04-26 21:00 61.96155 -7.06831 2823 ft 253 kts 286°
2026-04-26 21:00 61.96690 -7.10399 2765 ft 254 kts 286°
2026-04-26 21:00 61.97228 -7.13976 2709 ft 253 kts 286°
2026-04-26 21:01 61.97764 -7.17549 2656 ft 253 kts 286°
2026-04-26 21:01 61.98298 -7.21115 2605 ft 253 kts 286°
2026-04-26 21:01 61.98831 -7.24678 2562 ft 252 kts 286°
2026-04-26 21:01 61.99362 -7.28230 2509 ft 252 kts 286°
2026-04-26 21:02 61.99879 -7.31712 2623 ft 238 kts 286°
2026-04-26 21:02 62.00368 -7.35019 2651 ft 229 kts 285°
2026-04-26 21:02 62.00836 -7.38179 2576 ft 225 kts 286°
2026-04-26 21:02 62.01304 -7.41340 2449 ft 222 kts 286°
2026-04-26 21:03 62.01778 -7.44446 2132 ft 221 kts 290°
2026-04-26 21:03 62.02510 -7.47301 1991 ft 217 kts 304°
2026-04-26 21:03 62.03461 -7.49629 2011 ft 203 kts 310°
2026-04-26 21:03 62.04424 -7.51772 1918 ft 198 kts 316°
2026-04-26 21:04 62.05603 -7.53225 1839 ft 198 kts 341°
2026-04-26 21:04 62.06978 -7.53540 1805 ft 200 kts
2026-04-26 21:04 62.08265 -7.52700 1796 ft 185 kts 30°
2026-04-26 21:04 62.09325 -7.51276 1788 ft 176 kts 40°
2026-04-26 21:05 62.10028 -7.49374 1801 ft 156 kts 69°
2026-04-26 21:05 62.10249 -7.47215 1820 ft 143 kts 96°
2026-04-26 21:05 62.10008 -7.45263 1936 ft 136 kts 117°
2026-04-26 21:05 62.09627 -7.43377 1961 ft 139 kts 117°
2026-04-26 21:06 62.09254 -7.41488 1861 ft 137 kts 118°
2026-04-26 21:06 62.08892 -7.39613 1733 ft 135 kts 117°
2026-04-26 21:06 62.08589 -7.37732 1614 ft 134 kts 111°
2026-04-26 21:06 62.08316 -7.35818 1316 ft 137 kts 111°
2026-04-26 21:07 62.07921 -7.33977 1038 ft 134 kts 121°
2026-04-26 21:07 62.07483 -7.32269 789 ft 128 kts 117°
2026-04-26 21:07 62.07066 -7.30571 578 ft 129 kts 118°
2026-04-26 21:07 62.06649 -7.28899 322 ft 126 kts 119°
2026-04-26 21:08 62.06275 -7.27423 285 ft 89 kts 114°
2026-04-26 21:08 62.06121 -7.26786 281 ft 23 kts 118°
2026-04-26 21:08 62.06051 -7.26505 277 ft 21 kts 118°
2026-04-26 21:08 62.05982 -7.26257 273 ft 18 kts 122°
2026-04-26 21:09 62.05951 -7.26090 270 ft 9 kts 104°
2026-04-26 21:09 62.05947 -7.26034 270 ft 6 kts 99°
2026-04-26 21:09 62.05936 -7.26038 270 ft 1 kts 266°
2026-04-26 21:09 62.05970 -7.26177 271 ft 25 kts 300°
2026-04-26 21:10 62.06071 -7.26579 279 ft 31 kts 298°
2026-04-26 21:10 62.06189 -7.27058 281 ft 45 kts 298°
2026-04-26 21:10 62.06317 -7.27572 294 ft 33 kts 298°
2026-04-26 21:10 62.06405 -7.27927 295 ft 20 kts 298°
2026-04-26 21:11 62.06448 -7.28091 295 ft 11 kts 301°
2026-04-26 21:11 62.06504 -7.28117 294 ft 7 kts 18°
2026-04-26 21:11 62.06542 -7.28087 294 ft 4 kts 19°
2026-04-26 21:11 62.06566 -7.28072 295 ft 4 kts
2026-04-26 21:12 62.06600 -7.28073 292 ft 4 kts 357°
2026-04-26 21:12 62.06635 -7.28028 292 ft 9 kts 77°
2026-04-26 21:12 62.06637 -7.27953 292 ft 0 kts 100°
2026-04-26 21:12 62.06636 -7.27896 294 ft 6 kts 77°
2026-04-26 21:13 62.06655 -7.27858 296 ft 2 kts 33°
2026-04-26 21:13 62.06667 -7.27844 293 ft 1 kts 30°
2026-04-26 21:13 62.06668 -7.27842 293 ft 0 kts 29°